Погода в Кизляре

Погода в Кизляре : погода сейчас, прогноз погоды и архив. Всё, что Вы хотите узнать о погоде в Кизляре!

Поиск расширенной информации на нашем сайте:

Другие новости

Новости СМИ2

Главная страница сайта

Новости сайта

03.07.2017

Напоминаем, что на нашем специализированном сайте Метеоцентр.Азия вы можете получить высокодетализированные автоматические прогнозы погоды по пунктам России, СНГ и мира в авиационном формате (включающие направление и скорость ветра, видимость, явления погоды, количество и форму облачности, нижнюю и верхнюю границу облачности).


Погода в Кизляре - сегодня

Время (UTC), дата Ветер
(°,м/с) 
Видим.   Явления Облачность Т
(°С)
Тd
(°С)
f(%) Тe
(°С)
Pmin
(гПа)
dP
(гПа)
Po
(мм)
O2
(г/м3)
Тmin Tmax R s Состояние
почвы
06 19.04.18 300 (СЗ) 10 км    4/0 средняя 
[Ac trans]
+12.5 +6.1 65 +14  1013.2  -1.3  760  292           
09 19.04.18 290 (З) 10 км    8/8 600 м средняя, верхняя 
[Sc|Ac trans|Ci fib]
+20.9 +2.7 30 +21  1011.1  -2  759  284           
12 19.04.18 280 (З) 10 км    9/9 600 м средняя 
[Sc|Ac trans]
+21.9 +3.2 29 +22  1009  -2.1  757  282           
18 19.04.18 160 (Ю) 10 км    10/10 600 м 
[Sc]
+12.5 +8.5 77 +13  1007.8  -0.5  756  290           
06 20.04.18 190 (Ю) 10 км    9/9 600 м средняя 
[Sc|Ac trans]
+15.1 +7.3 60 +16  1006.1  -0.6  755  287           
09 20.04.18 250 (З) 10 км    9/9 600 м средняя 
[Sc|Ac trans]
+16.2 +5.9 50 +18  1006  0.1  755  286           
12 20.04.18 290 (З) 10 км    10/10 600 м 
[Sc]
+16.5 +5.4 48 +17  1006.7  0.7  755  286           
18 20.04.18 270 (З) 2{11}  10 км    10/10 600 м 
[Sc]
+11.2 +8.8 85 +11  1009.1  2.5  757  292           
21 20.04.18 250 (З) 10 км  слаб. дождь  10/10 600 м 
[Frnb|Ns]
+10.9 +9 88 +11  1009.4  0.3  757  292           
18 21.04.18 260 (З) 10 км    6/6 600 м средняя 
[Sc|Ac trans]
+11 +7.5 79 +11  1013.8  1.6  761  293           
21 21.04.18 240 (ЮЗ) 10 км    3/0 средняя 
[Ac trans]
+8.7 +6.1 84 +10  1013.5  -0.4  761  296           
00 22.04.18 260 (З) 10 км    ясно 
+7.6 +6.6 93 +9  1012.4  -1  760  297           
06 22.04.18 250 (З) 10 км    ясно 
+15.2 +6.6 56 +15  1011.3  -0.6  759  289           
09 22.04.18 270 (З) 10 км    4/4 600 м средняя 
[Cu hum|Ac trans]
+18.6 +4 38 +19  1009.1  -2.3  757  285           
12 22.04.18 290 (З) 10 км    4/4 600 м средняя 
[Cu hum|Ac trans]
+21.5 +0.8 25 +22  1007.5  -1.5  756  282           
15 22.04.18 280 (З) 10 км    ясно 
+20.4 +2.1 30 +20  1007.5  -0.1  756  283    +21.8       
18 22.04.18 090 (В) 1{11}  10 км    6/6 600 м средняя 
[Sc|Ac trans]
+13.6 +7.4 66 +15  1010.4  758  290           
21 22.04.18 270 (З) 10 км    10/10 600 м 
[Sc]
+13.2 +8.4 73 +14  1010.6  -0.1  758  290           
06 23.04.18 280 (З) 5{10}  10 км    4/4 600 м средняя 
[Cu hum|Ac trans]
+15.7 +5 49 +15  1011.8  0.7  759  289           
09 23.04.18 280 (З) 10 км    8/8 600 м средняя 
[Sc|Ac trans]
+18.3 +2.6 35 +19  1011.6  -0.3  759  286           
18 23.04.18 310 (СЗ) 10 км  дождь  10/10 600 м 
[Frnb|Ns]
+10.9 +7.9 82 +11  1015.6  3.8  762  294           
21 23.04.18 220 (ЮЗ) 4000 м  дождь  10/10 600 м 
[Frnb|Ns]
+9.3 +8.3 93 +8  1015.9  0.3  762  296           
06 24.04.18 310 (СЗ) 10 км    6/6 600 м средняя 
[Sc|Ac trans]
+13.3 +7.5 68 +14  1020.1  2.1  765  293           
09 24.04.18 290 (З) 10 км    8/8 600 м средняя 
[Sc|Ac trans]
+15.9 +1.7 38 +16  1020.6  0.6  766  291           
12 24.04.18 260 (З) 10 км    8/8 600 м средняя 
[Sc|Ac trans]
+16.5 +1.8 37 +17  1020.6  0.1  766  291           
Время (UTC), дата Ветер
(°,м/с) 
Видим.   Явления Облачность Т
(°С)
Тd
(°С)
f(%) Тe
(°С)
Pmin
(гПа)
dP
(гПа)
Po
(мм)
O2
(г/м3)
Тmin Tmax R s Состояние
почвы

Для получения пояснительной информации подведите курсор к названию столбца.

ПОГОДА в Кизляре - архив

Всё, что Вы хотите узнать о погоде в Кизляре - удобно и подробно!

Выберите нужную дату (начиная с 1 января 2015* года) и нажмите кнопку "Найти".
Будут отображены архивные сводки погоды по пункту Кизляр, начиная с указанной даты.


Отображать данные в формате CSV (для использования в таблицах Excel)


Внимание! Наш архив погоды предназначен исключительно для личного некоммерческого использования в познавательных целях. Если Вам необходимы официальные справки о состоянии погоды (для производственных, юридических, коммерческих и т.п. целей), обращайтесь в органы Росгидромета.

*Примечание: данная дата относится к архиву по метеостанциям СССР (Россия, СНГ, Балтия).
Архив по метеостанциям Зарубежной Европы и Азии (кроме Китая) хранится 10 дней, по другим регионам земного шара (Китай, Африка, Америка, Австралия, Океания) - 1 день.

Кизляр - район местоположения метеостанции


Название, широта, долгота, высота метеостанции:
Кизляр 43.8°ш. 46.7°д. -5 м над ур. моря [Российская Федерация]

Дополнительная информация

В oтличие oт бoльшинства пoгoдных сайтoв мы публикуем пoдрoбную метеoинфoрмацию в детальнoм прoфессиoнальнoм фoрмате.

Характеристики температуры и влажнoсти вoздуха измеряются на высoте 2 м в тени вдали oт зданий и деревьев.
Скoрoсть ветра измеряется на высoте 10 м (на урoвне рoста челoвека скoрoсть ветра ниже в 1.5-2 раза). Если метеoстанция нахoдится в гoрoде или в лесу, тo скoрoсть ветра занижена на 2-4 м/с пo сравнению с oткрытым местoм. Скoрoсть ветра над акватoриями крупных рек и oзёр, а также на вершинах хoлмoв на 2-5 м/с выше, чем в oбычных услoвиях.
Атмoсфернoе давление в разных тoчках местнoсти мoжет значительнo oтличаться oт давления на метеoстанции, в зависимoсти oт услoвий рельефа (при пoдъёме на 10 м давление пoнижается примернo на 1 мм рт.ст.).